Regional Weather Roundup
Issued by NWS

Home | Current Version | Previous Version | Graphics & Text | Print | Product List | Glossary On
Versions: 1 2 3 4 5 6 7 8 9 10 11 12 13 14 15 16 17 18 19 20 21 22 23 24 25 26 27 28 29 30 31 32 33 34 35 36 37 38 39 40 41 42 43 44 45 46 47 48 49 50
000
ASUS43 KLSX 232210
RWRMO

WEATHER SUMMARY FOR MISSOURI
NATIONAL WEATHER SERVICE SPRINGFIELD MO
500 PM CDT TUE MAY 23 2017

NOTE: "FAIR" INDICATES FEW OR NO CLOUDS BELOW 12,000 FEET WITH NO
       SIGNIFICANT WEATHER AND/OR OBSTRUCTIONS TO VISIBILITY.
       CURRENT SKY AND/OR WEATHER CONDITIONS ARE NOT AVAILABLE FOR
       CHILLICOTHE AND FARMINGTON.

MOZ001>031-035>038-043-044-053-054-232300-
...NORTHERN AND WESTERN MISSOURI...

CITY           SKY/WX    TMP DP  RH WIND       PRES   REMARKS
KANSAS CTY INT CLOUDY    65  48  54 NW7       29.80F
KANSAS C DTWN  CLOUDY    63  46  54 W6        29.80S
LEE`S SUMMIT   CLOUDY    59  51  75 N3        29.81S
ST JOSEPH      CLOUDY    62  47  57 N16       29.81S
CHILLICOTHE      N/A     63  45  51 NW9       29.79F
KIRKSVILLE     CLOUDY    65  48  54 NW16G23   29.75F

$$
MOZ066>068-077>081-088>096-101>105-232300-
...SOUTHWEST MISSOURI...

CITY           SKY/WX    TMP DP  RH WIND       PRES   REMARKS
SPRINGFIELD    MOSUNNY   66  51  58 N15       29.79F
JOPLIN         MOSUNNY   69  49  48 N14       29.81F
BRANSON        LGT RAIN  64  55  72 NW13G18   29.79F

$$
MOZ032>034-039>042-045>050-055>058-069>072-232300-
...CENTRAL MISSOURI...

CITY           SKY/WX    TMP DP  RH WIND       PRES   REMARKS
COLUMBIA       MOSUNNY   65  49  56 NW12      29.75F
JEFFERSON CITY PTSUNNY   69  48  47 NW13G21   29.75F
ROLLA          CLOUDY    61  54  77 N9        29.74S
SEDALIA        PTSUNNY   66  50  56 NW15G22   29.78F
WARRENSBURG    CLOUDY    63  45  51 NW12      29.79S
OSAGE BEACH    PTSUNNY   65  51  60 VRB7      29.77F

$$
MOZ051-052-059>065-232300-
...EAST CENTRAL MISSOURI...

CITY           SKY/WX    TMP DP  RH WIND       PRES   REMARKS
ST LOUIS INTL  CLOUDY    67  58  72 NW14      29.72S
SPIRIT OF STL  CLOUDY    62  55  77 NW15      29.73R
ST CHARLES       N/A     61  57  87 MISG      29.72R

$$
MOZ072>076-082>087-097>100-106>115-232300-
...SOUTH CENTRAL AND SOUTHEAST MISSOURI...

CITY           SKY/WX    TMP DP  RH WIND       PRES   REMARKS
CAPE GIRARDEAU CLOUDY    72  51  47 W7        29.68F
FARMINGTON     PTSUNNY   66  57  72 NW9       29.72S
POPLAR BLUFF   CLOUDY    70  57  63 S5        29.68F
WEST PLAINS    PTSUNNY   67  55  65 NW10G20   29.74F

$$




USA.gov is the U.S. government's official web portal to all federal, state and local government web resources and services.